Torna al catalogo

CZ-6A DEB

AttivoSSO
NORAD 54916·DEBRIS·🇨🇳 China

Lanciato Nov 11, 2022 da Taiyuan Satellite Launch Center

Loading…

Prossimi Passaggi (prossime 24 ore)

TLE

AggiornatoSource: Space-Track

Epoca: Sep 13, 2026, 23:40 UTC

1 54916U 22151RD  26256.98644108  .00000331  00000-0  20918-3 0  9997
2 54916  98.8579 256.0201 0051302  95.0022 265.7008 14.10143037194037

Traccia CZ-6A DEB in tempo reale con AllMySat

Download on the App Store